SL-4 R/B (43658 NORAD) Tracking and Keplerian Element Data

This shows tracking and keplerian element data for the satellite.

Feedback or suggestion? Click here.




ElementValue
Catalog43658
NameSL-4 R/B
Epoch Orbit263
Epoch Day315.5072574
Epoch Year2018
RAAN333.0947
Inclination67.1334
Eccentricity0.0460322
Argument of Perigee75.9241
Mean Anonmoly289.2613
Mean Motion15.03277733
Decay Rate0.00045289
L11 43658U 18082B 18315.50725740 .00045289 48525-5 24580-3 0 9992
L22 43658 67.1334 333.0947 0460322 75.9241 289.2613 15.03277733 2636

Live tracking and technical data element details for SL-4 R/B (NORAD 43658). SL-4 R/B can be tracked NOW for your location showing map with azimuth and elevation plus other details from your city location.

Track the satellite on the map from your city or location and see movement details for azimuth, elevation, latitude, longitude, range, height, and movement on the map or in text.







IsCatalogInMostPopularTable: catalog: 43658, numindb: 17
Update: records affected: 1



GetName: 43658 SL-4 R/B

Hit Count: updated at: Tue, 13 Nov 2018 07:32:37 GMT